This demonstration page uses our WeatherBlox Daily Observations layout. Learn more.

Left ArrowRight Arrow

31.84235, -102.49876

Hourly Observations for May 26, 2021

Temp ( °F °C ) Dew Point ( °F °C ) Humidity (%) Winds ( mph kmh ) Pressure ( in mb ) Visibility ( mi km ) Precip ( " mm )
12:53 am 00:53 Clear 75 23.9 64 17.8 69 69 S 13 20 29.89 1012 10 16 0.00 0.00
1:53 am 01:53 Clear 72 22.2 64 17.8 76 76 ESE 12 19 29.92 1013 10 16 0.00 0.00
2:53 am 02:53 Clear 72 22.2 64 17.8 76 76 SSE 14 22 29.90 1013 10 16 0.00 0.00
3:53 am 03:53 Clear 70 21.1 65 18.3 84 84 SSE 12 19 29.90 1013 10 16 0.00 0.00
4:53 am 04:53 Clear 70 21.1 65 18.3 84 84 SSE 14 22 29.91 1013 10 16 0.00 0.00
5:28 am 05:28 Mostly Cloudy 70 21.1 66 18.9 87 87 S 13 20 29.93 1013 10 16 0.00 0.00
5:53 am 05:53 Cloudy 71 21.7 66 18.9 84 84 S 15 24 29.93 1014 10 16 0.00 0.00
6:01 am 06:01 Cloudy 71 21.7 66 18.9 84 84 S 13 20 29.93 1014 10 16 0.00 0.00
6:31 am 06:31 Partly Cloudy 71 21.7 66 18.9 84 84 S 10 17 29.94 1014 10 16 0.00 0.00
6:53 am 06:53 Mostly Sunny 70 21.1 66 18.9 87 87 S 9 15 29.95 1014 8 13 0.00 0.00
7:06 am 07:06 Mostly Cloudy 71 21.7 66 18.9 84 84 S 9 15 29.95 1014 8 13 0.00 0.00
7:53 am 07:53 Partly Cloudy 72 22.2 67 19.4 84 84 S 13 20 29.96 1015 8 13 0.00 0.00
8:44 am 08:44 Mostly Cloudy 74 23.3 66 18.9 76 76 S 18 30 29.97 1015 9 14 0.00 0.00
8:53 am 08:53 Mostly Cloudy 74 23.3 66 18.9 76 76 S 20 31 29.98 1015 10 16 0.00 0.00
9:53 am 09:53 Cloudy 77 25 66 18.9 69 69 S 20 31 29.99 1016 10 16 0.00 0.00
10:50 am 10:50 Mostly Sunny 81 27 66 19 62 62 S 21 33 29.94 1014 10 16 0.00 0.00
10:53 am 10:53 Mostly Sunny 80 26.7 66 18.9 62 62 S 22 35 29.99 1016 10 16 0.00 0.00
11:53 am 11:53 Sunny 83 28.3 66 18.9 57 57 S 16 26 29.98 1015 10 16 0.00 0.00
12:53 pm 12:53 Sunny 86 30 65 18.3 49 49 S 16 26 29.97 1015 10 16 0.00 0.00
1:53 pm 13:53 Sunny 88 31.1 63 17.2 43 43 S 18 30 29.95 1014 10 16 0.00 0.00
2:53 pm 14:53 Sunny 92 33.3 63 17.2 38 38 SSE 17 28 29.91 1013 10 16 0.00 0.00
3:53 pm 15:53 Sunny 92 33.3 59 15 33 33 S 16 26 29.89 1012 10 16 0.00 0.00
4:53 pm 16:53 Sunny 93 33.9 55 12.8 28 28 S 18 30 29.86 1011 10 16 0.00 0.00
5:53 pm 17:53 Sunny 90 32.2 55 12.8 31 31 S 22 35 29.85 1011 10 16 0.00 0.00
6:53 pm 18:53 Sunny 87 30.6 59 15 39 39 SSE 18 30 29.84 1011 10 16 0.00 0.00
7:53 pm 19:53 Partly Cloudy 86 30 61 16.1 43 43 SSE 23 37 29.83 1010 10 16 0.00 0.00
8:53 pm 20:53 Clear 83 28.3 62 16.7 49 49 SSE 21 33 29.85 1011 10 16 0.00 0.00
9:53 pm 21:53 Clear 81 27.2 63 17.2 54 54 SSE 23 37 29.84 1011 10 16 0.00 0.00
10:53 pm 22:53 Clear 79 26.1 64 17.8 60 60 S 29 46 29.85 1011 10 16 0.00 0.00
11:53 pm 23:53 Clear 78 25.6 65 18.3 64 64 S 17 28 29.86 1011 10 16 0.00 0.00

Powered by AerisWeather